Weather History for Ponca City, OK

Change the Weather History Date:

Friday, March 15, 2013

  Actual Average Record
Temperature  
Mean Temperature 61 °F -  
Max Temperature 82 °F 61 °F 82 °F (1955)
Min Temperature 41 °F 37 °F 20 °F (1949)
Degree Days  
Heating Degree Days 4    
Growing Degree Days 11 (Base 50)    
Moisture  
Dew Point 42 °F    
Average Humidity 51    
Maximum Humidity 86    
Minimum Humidity 25    
Precipitation  
Precipitation 0.00 in - - ()
Sea Level Pressure  
Sea Level Pressure 29.88 in    
Wind  
Wind Speed 4 mph (SSW)    
Max Wind Speed 13 mph    
Max Gust Speed 16 mph    
Visibility 10 miles    
Events      
Averages and records for this station are not official NWS values.
T = Trace of Precipitation, MM = Missing Value Source: NWS Daily Summary

Daily Weather History Graph

Daily Weather History Graph

Search for Another Location

Airport:

Trip Planner

Search our weather history database for the weather conditions in past years. The results will help you decide how hot, cold, wet, or windy it might be!

Date:

Astronomy

Mar. 15, 2013 Rise Set
Actual Time 7:38 AM CDT 7:36 PM CDT
Civil Twilight 7:13 AM CDT 8:01 PM CDT
Nautical Twilight 6:43 AM CDT 8:31 PM CDT
Astronomical Twilight 6:12 AM CDT 9:02 PM CDT
Moon 9:36 AM CDT (3/15) 11:43 PM CDT (3/15)
Length of Visible Light 12h 48m
Length of Day
11h 57m
Waxing Crescent, 15% of the Moon is Illuminated
Mar 15
Waxing Crescent
Mar 19
First Quarter
Mar 27
Full
Apr 2
Last Quarter
Apr 10
New

Hourly Weather History & Observations

Time (CDT) Temp. Dew Point Humidity Pressure Visibility Wind Dir Wind Speed Gust Speed Precip Events Conditions
12:53 AM 46.9 °F 39.9 °F 77% 30.09 in 10.0 mi Calm Calm - N/A   Clear
1:53 AM 55.9 °F 42.1 °F 60% 30.05 in 10.0 mi SSE 3.5 mph - N/A   Clear
2:53 AM 52.0 °F 42.1 °F 69% 30.04 in 10.0 mi SSE 3.5 mph - N/A   Clear
3:53 AM 45.0 °F 37.9 °F 76% 30.02 in 10.0 mi Calm Calm - N/A   Clear
4:53 AM 46.9 °F 37.9 °F 71% 29.99 in 10.0 mi Calm Calm - N/A   Clear
5:53 AM 46.9 °F 39.0 °F 74% 29.98 in 10.0 mi Calm Calm - N/A   Clear
6:53 AM 42.1 °F 37.9 °F 85% 29.98 in 10.0 mi Calm Calm - N/A   Clear
7:53 AM 41.0 °F 37.0 °F 86% 29.97 in 10.0 mi Calm Calm - N/A   Clear
8:53 AM 55.0 °F 43.0 °F 64% 29.96 in 10.0 mi Calm Calm - N/A   Clear
9:53 AM 59.0 °F 45.0 °F 60% 29.95 in 10.0 mi WSW 6.9 mph - N/A   Clear
10:53 AM 64.0 °F 44.1 °F 48% 29.92 in 10.0 mi SSW 11.5 mph - N/A   Clear
11:53 AM 70.0 °F 44.1 °F 39% 29.90 in 10.0 mi WSW 6.9 mph - N/A   Clear
12:53 PM 73.9 °F 43.0 °F 33% 29.88 in 10.0 mi SW 9.2 mph - N/A   Clear
1:53 PM 75.9 °F 45.0 °F 33% 29.84 in 10.0 mi Variable 6.9 mph - N/A   Clear
2:53 PM 77.0 °F 44.1 °F 31% 29.81 in 10.0 mi SSW 8.1 mph - N/A   Clear
3:53 PM 80.1 °F 43.0 °F 27% 29.78 in 10.0 mi South 6.9 mph - N/A   Clear
4:53 PM 81.0 °F 42.1 °F 25% 29.75 in 10.0 mi SSW 10.4 mph - N/A   Clear
5:53 PM 79.0 °F 42.1 °F 27% 29.74 in 10.0 mi SSW 12.7 mph - N/A   Clear
6:53 PM 77.0 °F 44.1 °F 31% 29.72 in 10.0 mi SSW 8.1 mph 16.1 mph N/A   Clear
7:53 PM 73.9 °F 43.0 °F 33% 29.72 in 10.0 mi South 6.9 mph - N/A   Clear
8:53 PM 72.0 °F 42.1 °F 34% 29.71 in 10.0 mi South 6.9 mph - N/A   Clear
10:53 PM 66.9 °F 43.0 °F 42% 29.71 in 10.0 mi South 4.6 mph - N/A   Clear
11:53 PM 66.0 °F 44.1 °F 45% 29.70 in 10.0 mi South 4.6 mph - N/A   Clear